Location: Cuiry
(49.3858°N, 3.7708°E)
Time: 21:35:45
(UTC+00:00)

Daily predictions for brighter satellites

Satellite Brightness Start Highest point End
(mag) Time Altitude Azimuth Time Altitude Azimuth Time Altitude Azimuth
BREEZE-M DEB (TANK) 4.3 16:28:31 10° SW 16:33:12 56° SE 16:49:19 10° ENE
Cosmos 2184 Rocket 4.1 16:37:04 10° N 16:43:17 89° E 16:49:29 10° S
Cosmos 1633 Rocket 3.9 16:40:58 10° N 16:44:41 27° ENE 16:48:22 10° SE
CZ-2D R/B 3.6 16:44:56 10° SE 16:47:40 28° ENE 16:50:25 10° N
Nadezhda 1 Rocket 4.1 16:42:03 10° SSE 16:47:56 56° E 16:53:52 10° NNE
Cosmos 1954 Rocket 4.1 16:43:58 10° NNW 16:49:03 52° ENE 16:54:09 10° SE
CBERS-1 4.1 16:44:32 10° SSE 16:49:38 85° WSW 16:54:45 10° NNW
Cosmos 1666 Rocket 4.1 16:47:15 10° N 16:51:24 38° ENE 16:55:33 10° SE
USA 238 DEB 4.2 16:48:57 10° NW 16:55:49 46° NNE 17:03:21 10° ESE
USA 238 4.2 16:49:03 10° NW 16:55:55 46° NNE 17:03:27 10° ESE
Meteor 1-28 Rocket 2.8 16:53:31 10° NNE 16:56:50 81° ESE 17:00:06 10° S
AQUARIUS 4.4 16:54:05 10° SE 16:58:16 45° ENE 17:02:29 10° N
SL-8 Rocket 4.3 16:53:08 10° N 16:59:01 42° ENE 17:04:49 10° SE
IGS 5A 4.3 16:58:49 10° S 17:02:42 52° W 17:06:37 10° NNW
SAR-Lupe-4 4.2 17:00:10 10° SE 17:03:25 33° ENE 17:06:41 10° N
Cosmos 1328 Rocket 4.1 17:00:40 10° SSE 17:04:39 37° E 17:08:42 10° NNE
SPOT 1/Viking Rocket 3.9 17:00:14 10° SE 17:05:00 40° ENE 17:09:47 10° N
Thor Agena Rocket 3.5 17:00:58 10° SSE 17:06:00 89° WSW 17:11:03 10° NNW
USA 267 3.5 16:59:55 10° E 17:06:14 53° NNE 17:12:34 10° WNW
MOS 1 Rocket 3.5 17:01:18 10° SSE 17:06:35 71° ENE 17:11:42 10° N
Cosmos 1190 Rocket 3.9 17:01:33 10° NNW 17:06:46 84° ENE 17:11:57 10° SSE
Cosmos 1624 Rocket 4.5 17:02:00 10° S 17:06:54 42° ESE 17:11:52 10° NE
Cosmos 2219 Rocket 4.5 17:05:11 10° NW 17:07:06 12° NNW 17:09:02 10° N
Cosmos 968 Rocket 4.1 17:02:36 10° N 17:07:16 33° NE 17:11:53 10° ESE
SL-4 R/B 2.4 17:03:41 10° WNW 17:07:38 61° SSW 17:11:27 10° SE
CZ-2D R/B 4.4 17:05:32 10° ESE 17:08:33 22° ENE 17:11:33 10° NNE
COSMO-SKYMED 1 4.0 17:09:15 12° ENE 17:11:16 16° E 17:13:54 10° SE
BREEZE-M DEB (TANK) 3.1 17:06:43 10° WSW 17:13:03 85° SSE 17:16:45 14° ENE
Cosmos 962 Rocket 4.5 17:09:57 10° N 17:16:12 68° ENE 17:22:28 10° SSE
Cosmos 304 Rocket 3.9 17:11:29 10° NNW 17:16:15 81° WSW 17:20:59 10° SSE
IRS-P3 4.1 17:12:13 10° SSE 17:17:25 59° ENE 17:22:39 10° N
Cosmos 1953 2.8 17:14:20 10° N 17:17:39 30° ENE 17:20:58 10° SE
Resurs 01 Rocket 3.1 17:15:52 12° E 17:17:49 16° ENE 17:20:29 10° NNE
Cosmos 676 Rocket 3.9 17:15:12 10° NNW 17:20:24 70° ENE 17:25:35 10° SSE
Cosmos 332 Rocket 4.3 17:17:37 10° N 17:22:01 36° ENE 17:26:25 10° SE
Cosmos 1821 Rocket 4.4 17:16:52 10° N 17:22:39 38° ENE 17:28:19 10° SE
SL-16 R/B 3.1 17:17:23 10° N 17:23:26 58° WNW 17:29:26 10° SW
BREEZE M DEB (TANK) 3.3 17:22:51 10° W 17:24:49 35° SSW 17:27:50 10° SE
Cosmos 1515 Rocket 4.5 17:22:03 10° SE 17:25:44 27° E 17:29:01 12° NE
Cosmos 2369 Rocket 2.8 17:23:12 10° NW 17:28:49 62° WSW 17:34:24 10° SSE
Cosmos 2181 Rocket 4.4 17:25:21 10° SSE 17:30:57 39° E 17:36:38 10° NNE
YAOGAN 1 2.9 17:27:17 10° SE 17:31:14 39° ENE 17:35:13 10° N
Cosmos 2297 4.4 17:29:16 10° NW 17:34:48 59° WSW 17:40:20 10° S
NOSS 2-3 (C) 4.2 17:30:58 10° NW 17:35:56 80° NE 17:42:52 10° SE
Cosmos 1943 3.3 17:31:19 10° S 17:36:49 59° ESE 17:41:43 14° NE
NOSS 2-3 (D) 4.2 17:32:30 10° NW 17:37:32 90° WSW 17:44:21 10° SE
Dummy Sat-01 4.5 17:34:16 10° N 17:37:54 62° E 17:41:29 10° SSE
NOSS 3-4 (A) 4.0 17:34:28 10° S 17:38:59 30° ESE 17:41:28 21° ENE
NOSS 3-4 (C) 4.0 17:34:37 10° S 17:39:08 29° ESE 17:41:35 21° ENE
SJ 16-02 2.2 17:37:17 10° NNW 17:41:27 51° WSW 17:45:35 10° S
OPS 6432 4.5 17:40:10 10° NW 17:43:34 50° NE 17:44:58 28° ESE
Cosmos 1470 Rocket 3.4 17:40:41 10° N 17:44:59 70° ENE 17:49:18 10° SSE
Radarsat Rocket 4.0 17:40:45 10° SE 17:46:56 56° ENE 17:52:41 10° N
UNK 4.4 17:42:37 10° N 17:47:02 53° WNW 17:51:24 10° SW
COSMOS 2455 4.3 17:45:17 10° NNW 17:49:32 19° NNE 17:51:03 18° NE
Meteor 1-23 Rocket 4.2 17:46:12 10° S 17:51:46 59° E 17:57:18 10° NNE
Cosmos 2218 Rocket 4.0 17:45:21 10° N 17:51:48 81° E 17:58:13 10° SSE
Cosmos 2366 rocket 4.0 17:45:28 10° N 17:51:51 86° E 17:58:13 10° S
Spot 4 Rocket 4.0 17:47:47 10° SSE 17:52:49 61° ENE 17:57:53 10° N
Cosmos 1933 Rocket 3.9 17:48:52 10° N 17:53:03 40° ENE 17:57:11 10° SE
IRAS Rocket 4.5 17:48:15 10° SE 17:53:26 44° ENE 17:58:41 10° N
Cosmos 2237 Rocket 4.2 17:49:19 10° W 17:53:27 20° NW 17:57:36 10° N
ATLAS 3B R/B 4.0 17:46:53 10° W 17:53:59 37° NNW 18:00:05 14° NE
SL-16 R/B 3.1 17:49:38 10° SW 17:55:05 46° NW 18:00:33 10° NNE
PSLV R/B 3.6 17:51:36 10° SE 17:55:36 50° ENE 17:59:40 10° N
Cosmos 1703 2.8 17:53:27 10° S 17:56:42 57° E 17:57:38 39° NE
Meteor 1-12 Rocket 4.2 17:52:48 10° N 17:58:25 60° ENE 18:03:58 10° SSE
Meteor 1-21 4.2 17:54:55 10° S 18:00:26 62° E 18:05:58 10° NNE
Cosmos 2341 Rocket 4.2 17:56:24 10° NNW 18:02:45 76° W 18:09:00 10° S
BREEZE-M DEB (TANK) 3.6 18:04:03 10° SSW 18:06:29 33° SE 18:06:55 32° ESE
SL-24 R/B - RUBIN 2 3.7 18:06:30 10° NNW 18:10:45 47° NE 18:11:19 44° ENE
Cosmos 1934 Rocket 4.5 18:05:28 10° N 18:10:57 33° ENE 18:11:44 32° E
DNEPR-1 R/B 4.3 18:07:51 10° S 18:11:37 32° SE 18:11:37 32° SE
BREEZE-M DEB (TANK) 2.1 18:09:43 10° W 18:11:59 62° SW 18:11:59 62° SW
Cosmos 2056 Rocket 3.9 18:07:19 10° SW 18:12:24 59° WNW 18:16:52 13° NNE
Meteor 1-16 Rocket 4.0 18:07:19 10° N 18:12:39 84° ENE 18:18:01 10° SSE
ATLAS 5 CENTAUR R/B 0.6 18:09:50 10° SW 18:12:48 73° NW 18:13:01 69° N
USA 215 3.4 18:10:46 30° ENE 18:14:01 57° SE 18:20:26 10° SW
ARIANE 5 R/B 4.2 18:10:04 10° SSW 18:14:48 35° W 18:19:35 10° NNW
Cosmos 2239 Rocket 4.5 18:11:04 10° N 18:17:18 58° ENE 18:23:26 10° SSE
Cosmos 1869 Rocket 3.6 18:15:17 10° N 18:19:21 51° ENE 18:19:21 51° ENE
Nadezhda 3 Rocket 4.1 18:16:18 10° SSE 18:22:11 50° E 18:27:16 14° NNE
Meteor 2-15 Rocket 4.3 18:16:05 10° N 18:22:14 66° ENE 18:28:19 10° SSE
SJ-7 4.4 18:20:05 10° S 18:23:51 72° WSW 18:27:40 10° NNW
ISS -1.8 18:23:49 10° SSW 18:25:24 20° S 18:25:24 20° S
Resurs 1-3 4.1 18:23:44 10° S 18:27:57 57° W 18:32:14 10° NNW
Meteor 2-13 Rocket 4.3 18:23:17 10° S 18:29:26 83° E 18:35:38 10° NNE
Cosmos 292 Rocket 3.5 18:26:38 10° NNW 18:31:21 72° ENE 18:32:17 55° SE
Cosmos 1980 Rocket 4.0 18:28:11 10° N 18:30:21 16° NNE 18:30:21 16° NNE
BREEZE-M DEB (TANK) 3.2 18:31:15 10° SW 18:34:30 64° SSE 18:36:26 43° E
CARTOSAT-1 3.4 18:31:14 10° SSE 18:35:26 83° WSW 18:39:41 10° NNW
Cosmos 1656 3.6 18:30:04 10° NNW 18:35:41 65° ENE 18:36:53 51° ESE
DMSP B5D1-3 4.3 18:40:06 63° ENE 18:40:37 68° ESE 18:45:40 10° S
COSMO-SKYMED 1 3.0 18:45:34 37° NNW 18:46:54 56° WNW 18:50:55 10° SSW
USA 238 DEB 4.3 18:39:54 10° NW 18:47:13 66° SW 18:55:11 10° SSE
USA 238 4.3 18:40:00 10° NW 18:47:20 67° SW 18:55:18 10° SSE
Cosmos 1741 Rocket 4.4 18:43:35 10° NNW 18:48:44 61° WSW 18:53:50 10° S
USA 267 3.2 18:46:12 37° SE 18:49:04 82° SW 18:55:40 10° WNW
BREEZE-M DEB (TANK) 3.1 18:47:05 10° W 18:50:58 73° W 18:50:58 73° W
Resurs 01 Rocket 1.7 18:53:13 65° SSW 18:53:39 72° WSW 18:58:03 10° NNW
Cosmos 1603 3.7 18:48:50 10° SSW 18:54:30 77° WNW 18:56:03 49° NNE
Cosmos 1331 Rocket 4.2 18:51:00 10° SSW 18:56:06 67° WNW 18:57:24 48° N
Cosmos 1697 Rocket 3.8 18:53:08 10° NNW 18:56:29 30° N 18:56:29 30° N
Cosmos 1452 Rocket 3.9 19:12:59 10° SW 19:18:10 59° WNW 19:18:18 58° NW
Cosmos 2360 4.4 19:18:25 10° NNW 19:23:39 68° WNW 19:23:39 68° WNW
Cosmos 1339 Rocket 4.4 19:18:51 10° SSW 19:25:04 79° W 19:25:09 79° WNW
NOSS 3-4 (A) 3.6 19:24:06 10° WSW 19:28:55 57° WNW 19:28:55 57° WNW
NOSS 3-4 (C) 3.6 19:24:13 10° WSW 19:29:04 57° WNW 19:29:04 57° WNW
COSMOS 2455 4.1 19:31:00 10° NNW 19:34:12 31° NNW 19:34:12 31° NNW
ATLAS 3B R/B 4.2 19:40:25 10° NW 19:47:03 28° N 19:47:20 28° N
USA 215 3.6 19:58:06 58° WNW 19:58:06 58° WNW 20:03:36 10° WSW
NOSS 3-1 (C) 4.4 19:58:23 10° NW 20:03:04 50° NNW 20:03:04 50° NNW
